TIANWANG 1B (TW-1B)
1 40927U 15051C   19349.39115390  .00010889  00000-0  14762-3 0  9990
2 40927  97.1154  34.5171 0009103  78.9159  45.3388 15.57791427237959
TIANWANG 1A (TW-1A)
1 40928U 15051D   19348.76176672  .00002249  00000-0  55209-4 0  9994
2 40928  97.1285  16.0253 0011935 135.2114 337.6461 15.41661085236750
LAPAN A2
1 40931U 15052B   19347.66238402  .00000634  00000-0 -72604-6 0  9994
2 40931   5.9996 227.5001 0012672 152.9822 207.0947 14.76621471227606
LQSAT
1 40958U 15057A   19349.43098612  .00000005  00000-0  84239-5 0  9999
2 40958  97.8792  53.5756 0018728  28.5829 331.6402 14.73100182225264
CHUBUSAT 2
1 41338U 16012B   19348.54189177  .00000262  00000-0  13674-4 0  9991
2 41338  31.0033  88.1005 0013681  74.3384 285.8760 15.00219417209794
CHUBUSAT 3
1 41339U 16012C   19349.42212058  .00000277  00000-0  14777-4 0  9996
2 41339  31.0113  80.3711 0013513  89.3578 270.8610 15.00390199209927
OUFTI-1
1 41458U 16025C   19348.71556580 +.00000934 +00000-0 +50699-4 0  9997
2 41458 098.1002 084.6837 0166450 114.8333 247.0305 15.06305560199512
E-STAR-2
1 41459U 16025D   19349.04210022  .00000742  00000-0  41463-4 0  9999
2 41459  98.0997  84.5818 0167885 115.3203 246.5515 15.05908301199538
AAUSAT 4
1 41460U 16025E   19348.98389988  .00001485  00000-0  76664-4 0  9997
2 41460  98.0982  86.2430 0157348 106.4610 255.3893 15.07990635199685
NUSAT 1
1 41557U 16033B   19349.15829045  .00000925  00000-0  36977-4 0  9997
2 41557  97.4125  75.5967 0014370  29.9802 330.2257 15.27597167197487
BEESAT 4
1 41619U 16040W   19348.84547161 +.00001088 +00000-0 +48380-4 0  9997
2 41619 097.3464 047.5479 0012830 111.1541 249.1068 15.23536941181133
PRATHAM
1 41783U 16059A   19348.44735081 +.00000045 +00000-0 +17834-4 0  9997
2 41783 098.0450 043.8612 0033653 179.6011 180.5223 14.63026144171685
ALSAT 1N
1 41789U 16059G   19349.17154946  .00000071  00000-0  22390-4 0  9991
2 41789  98.0482  46.9619 0028794 165.4620 194.7422 14.64283107171915
NAYIF 1
1 42017U 17008BX  19348.61272744  .00001178  00000-0  48641-4 0  9992
2 42017  97.3842  53.7048 0004654 254.0021 106.0705 15.25974314157204
MAX VALIER SAT
1 42778U 17036P   19348.79915572 +.00000699 +00000-0 +33311-4 0  9994
2 42778 097.3323 042.3130 0011099 321.1795 038.8643 15.22299163137483
